This is the latest recevied weather packets stored in our database for station/object N1IJV-10. If no packets are shown the sender has not sent any weather packets the latest 10 day(s).
| Time | Temp. | Humidity | Pressure | Rain* | Wind** | Luminosity | Snow |
|---|---|---|---|---|---|---|---|
| 1778087101 | 12.22° C | 45% | 1013.5 hPa | 0 mm | - | 212 W/m² | - |
| 1778086794 | 12.22° C | 46% | 1013.7 hPa | 0 mm | - | 228 W/m² | - |
| 1778086492 | 12.22° C | 44% | 1013.7 hPa | 0 mm | - | 227 W/m² | - |
| 1778086183 | 13.33° C | 42% | 1013.7 hPa | 0 mm | - | 195 W/m² | - |
| 1778085880 | 12.78° C | 45% | 1013.6 hPa | 0 mm | - | 852 W/m² | - |
| 1778085577 | 11.67° C | 47% | 1013.4 hPa | 0 mm | - | 305 W/m² | - |
| 1778085272 | 11.67° C | 46% | 1013.4 hPa | 0 mm | - | 193 W/m² | - |
| 1778084967 | 12.22° C | 46% | 1013.5 hPa | 0 mm | - | 217 W/m² | - |
| 1778084664 | 11.67° C | 45% | 1013.5 hPa | 0 mm | - | 849 W/m² | - |
| 1778084356 | 12.22° C | 45% | 1013.6 hPa | 0 mm | - | 201 W/m² | - |
| 1778084054 | 12.22° C | 50% | 1013.4 hPa | 0 mm | - | 491 W/m² | - |
| 1778083746 | 12.22° C | 44% | 1013.5 hPa | 0 mm | - | 314 W/m² | - |
| 1778083442 | 12.22° C | 51% | 1013.4 hPa | 0 mm | - | 589 W/m² | - |
| 1778083140 | 11.67° C | 46% | 1013.5 hPa | 0 mm | - | 244 W/m² | - |
| 1778082836 | 12.22° C | 48% | 1013.5 hPa | 0 mm | - | 253 W/m² | - |
| 1778081714 | 12.22° C | 43% | 1013.4 hPa | 0 mm | - | 494 W/m² | - |
| 1778081411 | 11.67° C | 49% | 1013.7 hPa | 0 mm | - | 623 W/m² | - |
| 1778081108 | 11.11° C | 49% | 1013.6 hPa | 0 mm | - | 248 W/m² | - |
| 1778080807 | 11.11° C | 47% | 1013.7 hPa | 0 mm | - | 164 W/m² | - |
| 1778080504 | 11.67° C | 46% | 1013.8 hPa | 0 mm | - | 212 W/m² | - |
| 1778080201 | 11.67° C | 46% | 1013.6 hPa | 0 mm | - | 207 W/m² | - |
| 1778079897 | 11.67° C | 47% | 1013.6 hPa | 0 mm | - | 255 W/m² | - |
| 1778079594 | 11.67° C | 46% | 1013.6 hPa | 0 mm | - | 389 W/m² | - |
| 1778079290 | 11.67° C | 47% | 1013.7 hPa | 0 mm | - | 394 W/m² | - |
| 1778078988 | 11.11° C | 46% | 1013.8 hPa | 0 mm | - | 402 W/m² | - |
* Rain latest hour (hover to see other rain measurements)
** Current wind speed in m/s (hover to see current wind gust speed)